Volver al catálogo

HULIANWANG DIGUI-129

ActivoComunicacionesLEO
NORAD 67237·PAYLOAD·🇨🇳 China

Lanzado Dec 25, 2025 desde Wenchang Space Launch Site

Loading…

Próximos Pases (próximas 24 horas)

TLE

ActualizadoSource: Space-Track

Época: Sep 14, 2026, 17:36 UTC

1 67237U 25311B   26257.73391007 -.00000080  00000-0  95963-4 0  9994
2 67237  50.0068 154.4664 0000250 323.7707  36.3148 13.29328266 35254

Sigue HULIANWANG DIGUI-129 en tiempo real con AllMySat

Download on the App Store